Tracking 21496 objects as of 30-Sep-2020
HD Live streaming from Space Station
objects crossing your sky now

THEA

Track THEA now!
10-day predictions


NORAD ID: 43796
Int'l Code: 2018-099AQ
Perigee: 575.7 km
Apogee: 596.8 km
Inclination: 97.7 °
Period: 96.3 minutes
Semi major axis: 6957 km
RCS: Unknown
Launch date: December 3, 2018
Source: United States (US)
Launch site: AIR FORCE WESTERN TEST RANGE (AFWTR)
aabbcc
Your satellite tracking list
Your tracking list is empty




NASA's NSSDC Master Catalog

Two Line Element Set (TLE):
1 43796U 18099AQ  20273.87984006 +.00001011 +00000-0 +94981-4 0  9990
2 43796 097.6973 344.3244 0015184 180.3628 179.7585 14.96043138098483
Source of the keplerian elements: AFSPC